Starlink 32305

operational
NORAD ID: 61523 Int'l Des: 2024-183 Owner: SPXS Country: US Constellation: starlink
LEOCIRCULAR

关于 Starlink 32305

正在加载描述...

实时位置

正在加载3D地球...

即将过境

高度历史

Altitude vs Time

uPlot chart will show altitude changes over time

两行轨道根数

1 61523U 24183Q 25350.82128377 .00000789 00000-0 38780-4 0 9992
2 61523 53.1603 167.4493 0001374 88.6658 271.4501 15.30193427 66969
Epoch: Dec 16, 2025 • Age: 15 hours

当前状态

高度 486.5 km
速度 7.62 km/s
星下点 -33.86°S, 126.31°E
发射日期 Oct 15, 2024
运行时间 1.1 years
类型 internet

技术详情

分类 Payload
质量 730.00 kg
干质量 700.00 kg
总质量 730.00 kg
长度 0.30 m
直径 4.10 m
跨度 29.00 m
形状 Box + pan
制造商 SPXS
平台类型 Starlink V2M
阶段状态 In Orbit
所有者/国家 SPXS/US

大型星座

Loading constellations...